Time,TemperatureF,DewpointF,PressureIn,WindDirection,WindDirectionDegrees,WindSpeedMPH,WindSpeedGustMPH,Humidity,HourlyPrecipIn,Conditions,Clouds,dailyrainin,SoftwareType,DateUTC
2013-05-09 00:02:00,52.0,33.4,30.11,SSE,167,3.1,3.1,49,0.00,,,0.00,VWS V14.01,2013-05-09 07:02:00,
2013-05-09 00:07:00,52.0,33.9,30.11,East,94,5.4,5.4,50,0.00,,,0.00,VWS V14.01,2013-05-09 07:07:00,
2013-05-09 00:13:00,52.0,33.9,30.11,SSE,166,2.7,4.9,50,0.00,,,0.00,VWS V14.01,2013-05-09 07:13:00,
2013-05-09 00:18:00,52.0,33.9,30.11,SW,215,4.0,5.4,50,0.00,,,0.00,VWS V14.01,2013-05-09 07:18:00,
2013-05-09 00:23:00,52.0,33.9,30.11,SE,137,3.6,3.6,50,0.00,,,0.00,VWS V14.01,2013-05-09 07:23:00,
2013-05-09 00:28:00,52.0,33.9,30.11,South,174,0.0,2.7,50,0.00,,,0.00,VWS V14.01,2013-05-09 07:28:00,
2013-05-09 00:33:00,52.0,33.9,30.11,East,86,2.7,4.0,50,0.00,,,0.00,VWS V14.01,2013-05-09 07:33:00,
2013-05-09 00:38:00,52.0,33.9,30.11,East,96,4.0,5.4,50,0.00,,,0.00,VWS V14.01,2013-05-09 07:38:00,
2013-05-09 00:43:00,52.0,33.9,30.11,SSE,164,0.0,3.1,50,0.00,,,0.00,VWS V14.01,2013-05-09 07:43:00,
2013-05-09 00:48:00,52.0,33.9,30.11,SE,142,3.6,5.4,50,0.00,,,0.00,VWS V14.01,2013-05-09 07:48:00,
2013-05-09 00:53:00,52.0,34.4,30.11,SE,141,6.3,6.3,51,0.00,,,0.00,VWS V14.01,2013-05-09 07:53:00,
2013-05-09 00:58:00,52.0,34.4,30.11,SW,232,3.6,7.2,51,0.00,,,0.00,VWS V14.01,2013-05-09 07:58:00,
2013-05-09 01:03:00,52.0,34.4,30.11,SSW,195,3.1,4.0,51,0.00,,,0.00,VWS V14.01,2013-05-09 08:03:00,
2013-05-09 01:08:00,51.8,34.3,30.11,SE,133,3.1,5.4,51,0.00,,,0.00,VWS V14.01,2013-05-09 08:08:00,
2013-05-09 01:13:00,51.8,34.3,30.11,SSE,152,3.6,3.6,51,0.00,,,0.00,VWS V14.01,2013-05-09 08:13:00,
2013-05-09 01:18:00,51.8,34.3,30.11,South,171,2.7,3.6,51,0.00,,,0.00,VWS V14.01,2013-05-09 08:18:00,
2013-05-09 01:23:00,51.8,34.3,30.11,SSE,158,3.6,3.6,51,0.00,,,0.00,VWS V14.01,2013-05-09 08:23:00,
2013-05-09 01:28:00,51.8,34.3,30.11,SSW,205,6.3,6.3,51,0.00,,,0.00,VWS V14.01,2013-05-09 08:28:00,
2013-05-09 01:33:00,51.8,34.3,30.11,SE,137,3.6,3.6,51,0.00,,,0.00,VWS V14.01,2013-05-09 08:33:00,
2013-05-09 01:38:00,51.8,34.3,30.11,South,169,0.0,3.1,51,0.00,,,0.00,VWS V14.01,2013-05-09 08:38:00,
2013-05-09 01:43:00,51.8,34.3,30.11,SSE,151,3.1,3.6,51,0.00,,,0.00,VWS V14.01,2013-05-09 08:43:00,
2013-05-09 01:48:00,51.8,34.3,30.11,SSW,206,3.1,4.9,51,0.00,,,0.00,VWS V14.01,2013-05-09 08:48:00,
2013-05-09 01:53:00,51.8,34.3,30.11,SSE,155,3.6,3.6,51,0.00,,,0.00,VWS V14.01,2013-05-09 08:53:00,
2013-05-09 01:58:00,51.8,34.3,30.11,East,86,2.7,4.0,51,0.00,,,0.00,VWS V14.01,2013-05-09 08:58:00,
2013-05-09 02:03:00,51.8,34.3,30.11,SSW,192,2.7,2.7,51,0.00,,,0.00,VWS V14.01,2013-05-09 09:03:00,
2013-05-09 02:08:00,51.8,34.3,30.11,SSW,192,0.0,4.0,51,0.00,,,0.00,VWS V14.01,2013-05-09 09:08:00,
2013-05-09 02:13:00,51.8,34.3,30.11,SSE,153,3.6,3.6,51,0.00,,,0.00,VWS V14.01,2013-05-09 09:13:00,
2013-05-09 02:18:00,51.6,34.1,30.11,SE,142,0.0,3.6,51,0.00,,,0.00,VWS V14.01,2013-05-09 09:18:00,
2013-05-09 02:23:00,51.6,34.1,30.11,ESE,103,4.0,4.0,51,0.00,,,0.00,VWS V14.01,2013-05-09 09:23:00,
2013-05-09 02:28:00,51.6,34.1,30.11,SW,220,5.4,5.4,51,0.00,,,0.00,VWS V14.01,2013-05-09 09:28:00,
2013-05-09 02:33:00,51.6,34.1,30.11,SW,218,2.7,3.6,51,0.00,,,0.00,VWS V14.01,2013-05-09 09:33:00,
2013-05-09 02:38:00,51.6,34.1,30.11,SSW,199,4.0,4.0,51,0.00,,,0.00,VWS V14.01,2013-05-09 09:38:00,
2013-05-09 02:43:00,51.6,34.6,30.11,West,268,3.1,4.0,52,0.00,,,0.00,VWS V14.01,2013-05-09 09:43:00,
2013-05-09 02:48:00,51.6,34.6,30.11,SSW,197,2.7,2.7,52,0.00,,,0.00,VWS V14.01,2013-05-09 09:48:00,
2013-05-09 02:53:00,51.6,34.6,30.11,SSW,209,3.6,3.6,52,0.00,,,0.00,VWS V14.01,2013-05-09 09:53:00,
2013-05-09 02:59:00,51.6,34.6,30.11,SE,137,2.7,4.0,52,0.00,,,0.00,VWS V14.01,2013-05-09 09:59:00,
2013-05-09 03:04:00,51.6,34.6,30.11,SE,133,4.9,5.8,52,0.00,,,0.00,VWS V14.01,2013-05-09 10:04:00,
2013-05-09 03:09:00,51.6,34.6,30.11,South,180,3.6,4.0,52,0.00,,,0.00,VWS V14.01,2013-05-09 10:09:00,
2013-05-09 03:14:00,51.6,34.6,30.11,South,182,0.0,3.1,52,0.00,,,0.00,VWS V14.01,2013-05-09 10:14:00,
2013-05-09 03:19:00,51.6,34.1,30.11,South,175,4.9,4.9,51,0.00,,,0.00,VWS V14.01,2013-05-09 10:19:00,
2013-05-09 03:24:00,51.6,34.1,30.11,SE,135,4.0,4.0,51,0.00,,,0.00,VWS V14.01,2013-05-09 10:24:00,
2013-05-09 03:29:00,51.6,34.1,30.11,SSW,209,2.2,2.2,51,0.00,,,0.00,VWS V14.01,2013-05-09 10:29:00,
2013-05-09 03:34:00,51.6,34.1,30.11,SW,215,3.1,3.1,51,0.00,,,0.00,VWS V14.01,2013-05-09 10:34:00,
2013-05-09 03:39:00,51.6,34.1,30.11,SSE,150,3.1,3.1,51,0.00,,,0.00,VWS V14.01,2013-05-09 10:39:00,
2013-05-09 03:44:00,51.6,34.1,30.11,SW,215,3.1,3.6,51,0.00,,,0.00,VWS V14.01,2013-05-09 10:44:00,
2013-05-09 03:49:00,51.6,34.1,30.11,SW,227,3.1,3.1,51,0.00,,,0.00,VWS V14.01,2013-05-09 10:49:00,
2013-05-09 03:54:00,51.6,34.1,30.11,South,189,4.0,4.0,51,0.00,,,0.00,VWS V14.01,2013-05-09 10:54:00,
2013-05-09 03:59:00,51.6,34.1,30.11,SSE,155,2.2,3.1,51,0.00,,,0.00,VWS V14.01,2013-05-09 10:59:00,
2013-05-09 04:04:00,51.4,33.9,30.11,SW,221,3.6,3.6,51,0.00,,,0.00,VWS V14.01,2013-05-09 11:04:00,
2013-05-09 04:09:00,51.4,33.9,30.11,SSE,160,3.1,3.6,51,0.00,,,0.00,VWS V14.01,2013-05-09 11:09:00,
2013-05-09 04:14:00,51.3,33.8,30.11,SSE,148,3.1,3.1,51,0.00,,,0.00,VWS V14.01,2013-05-09 11:14:00,
2013-05-09 04:19:00,51.3,33.8,30.11,SSW,202,2.2,3.6,51,0.00,,,0.00,VWS V14.01,2013-05-09 11:19:00,
2013-05-09 04:24:00,51.1,33.6,30.11,South,171,4.0,4.0,51,0.00,,,0.00,VWS V14.01,2013-05-09 11:24:00,
2013-05-09 04:29:00,51.1,34.1,30.11,South,176,0.0,3.1,52,0.00,,,0.00,VWS V14.01,2013-05-09 11:29:00,
2013-05-09 04:34:00,51.3,34.2,30.11,South,183,0.0,0.0,52,0.00,,,0.00,VWS V14.01,2013-05-09 11:34:00,
2013-05-09 04:39:00,51.3,34.2,30.11,SSE,157,0.0,2.7,52,0.00,,,0.00,VWS V14.01,2013-05-09 11:39:00,
2013-05-09 04:44:00,51.1,34.1,30.11,ESE,104,3.6,3.6,52,0.00,,,0.00,VWS V14.01,2013-05-09 11:44:00,
2013-05-09 04:49:00,51.1,34.1,30.11,SSE,156,3.6,5.4,52,0.00,,,0.00,VWS V14.01,2013-05-09 11:49:00,
2013-05-09 04:54:00,51.1,34.1,30.11,SSE,168,3.1,3.1,52,0.00,,,0.00,VWS V14.01,2013-05-09 11:54:00,
2013-05-09 04:59:00,51.3,34.2,30.11,SSW,195,0.0,0.0,52,0.00,,,0.00,VWS V14.01,2013-05-09 11:59:00,
2013-05-09 05:04:00,51.3,34.2,30.11,South,170,4.0,4.0,52,0.00,,,0.00,VWS V14.01,2013-05-09 12:04:00,
2013-05-09 05:10:00,51.3,34.2,30.11,SSE,153,0.0,3.1,52,0.00,,,0.00,VWS V14.01,2013-05-09 12:10:00,
2013-05-09 05:15:00,51.3,34.2,30.11,South,187,2.7,4.0,52,0.00,,,0.00,VWS V14.01,2013-05-09 12:15:00,
2013-05-09 05:20:00,51.3,34.2,30.11,SSE,161,3.1,3.6,52,0.00,,,0.00,VWS V14.01,2013-05-09 12:20:00,
2013-05-09 05:25:00,51.3,34.2,30.11,SSE,165,2.2,3.1,52,0.00,,,0.00,VWS V14.01,2013-05-09 12:25:00,
2013-05-09 05:30:00,51.3,34.7,30.11,ESE,110,2.7,2.7,53,0.00,,,0.00,VWS V14.01,2013-05-09 12:30:00,
2013-05-09 05:35:00,51.3,34.7,30.11,SE,143,2.7,5.4,53,0.00,,,0.00,VWS V14.01,2013-05-09 12:35:00,
2013-05-09 05:40:00,51.4,34.9,30.11,South,185,2.2,4.0,53,0.00,,,0.00,VWS V14.01,2013-05-09 12:40:00,
2013-05-09 05:45:00,51.4,34.9,30.11,South,189,3.1,3.1,53,0.00,,,0.00,VWS V14.01,2013-05-09 12:45:00,
2013-05-09 05:50:00,51.3,34.7,30.11,SE,141,2.2,2.2,53,0.00,,,0.00,VWS V14.01,2013-05-09 12:50:00,
2013-05-09 05:55:00,51.3,34.7,30.11,South,177,4.0,4.0,53,0.00,,,0.00,VWS V14.01,2013-05-09 12:55:00,
2013-05-09 06:00:00,51.3,34.7,30.11,South,184,0.0,3.6,53,0.00,,,0.00,VWS V14.01,2013-05-09 13:00:00,
2013-05-09 06:05:00,51.4,34.9,30.11,SE,141,2.2,3.6,53,0.00,,,0.00,VWS V14.01,2013-05-09 13:05:00,
2013-05-09 06:10:00,51.4,34.9,30.11,SSE,157,0.0,2.2,53,0.00,,,0.00,VWS V14.01,2013-05-09 13:10:00,
2013-05-09 06:15:00,51.4,34.9,30.11,SW,219,2.2,4.0,53,0.00,,,0.00,VWS V14.01,2013-05-09 13:15:00,
2013-05-09 06:20:00,51.4,34.9,30.11,WSW,241,2.2,2.2,53,0.00,,,0.00,VWS V14.01,2013-05-09 13:20:00,
2013-05-09 06:25:00,51.6,35.1,30.11,SSW,203,3.6,3.6,53,0.00,,,0.00,VWS V14.01,2013-05-09 13:25:00,
2013-05-09 06:30:00,51.6,35.1,30.11,ESE,103,3.6,4.9,53,0.00,,,0.00,VWS V14.01,2013-05-09 13:30:00,
2013-05-09 06:35:00,51.6,35.1,30.11,SSW,194,2.7,3.1,53,0.00,,,0.00,VWS V14.01,2013-05-09 13:35:00,
2013-05-09 06:40:00,51.6,35.1,30.11,SSW,205,3.1,3.1,53,0.00,,,0.00,VWS V14.01,2013-05-09 13:40:00,
2013-05-09 06:45:00,51.6,35.1,30.11,South,173,4.9,4.9,53,0.00,,,0.00,VWS V14.01,2013-05-09 13:45:00,
2013-05-09 06:50:00,51.6,35.1,30.11,SSW,206,3.1,3.1,53,0.00,,,0.00,VWS V14.01,2013-05-09 13:50:00,
2013-05-09 06:55:00,51.8,34.8,30.11,SSW,203,3.1,3.1,52,0.00,,,0.00,VWS V14.01,2013-05-09 13:55:00,
2013-05-09 07:00:00,51.8,34.8,30.11,East,93,3.1,3.1,52,0.00,,,0.00,VWS V14.01,2013-05-09 14:00:00,
2013-05-09 07:05:00,51.8,34.8,30.11,South,183,2.7,2.7,52,0.00,,,0.00,VWS V14.01,2013-05-09 14:05:00,
2013-05-09 07:10:00,52.0,34.9,30.11,SW,230,2.7,3.1,52,0.00,,,0.00,VWS V14.01,2013-05-09 14:10:00,
2013-05-09 07:15:00,52.0,34.9,30.11,SSW,195,2.7,3.1,52,0.00,,,0.00,VWS V14.01,2013-05-09 14:15:00,
2013-05-09 07:20:00,52.2,35.1,30.11,SE,134,3.1,4.0,52,0.00,,,0.00,VWS V14.01,2013-05-09 14:20:00,
2013-05-09 07:25:00,52.3,34.8,30.11,SSE,152,0.0,2.7,51,0.00,,,0.00,VWS V14.01,2013-05-09 14:25:00,
2013-05-09 07:30:00,52.5,34.9,30.11,SSW,204,3.6,3.6,51,0.00,,,0.00,VWS V14.01,2013-05-09 14:30:00,
2013-05-09 07:35:00,52.7,34.6,30.11,SW,220,4.0,4.9,50,0.00,,,0.00,VWS V14.01,2013-05-09 14:35:00,
2013-05-09 07:40:00,52.5,33.9,30.11,SW,219,3.6,5.8,49,0.00,,,0.00,VWS V14.01,2013-05-09 14:40:00,
2013-05-09 07:45:00,52.5,33.9,30.11,SE,135,4.9,4.9,49,0.00,,,0.00,VWS V14.01,2013-05-09 14:45:00,
2013-05-09 07:50:00,52.5,33.4,30.11,South,176,3.1,3.6,48,0.00,,,0.00,VWS V14.01,2013-05-09 14:50:00,
2013-05-09 07:55:00,52.5,33.4,30.11,SSE,168,3.1,3.1,48,0.00,,,0.00,VWS V14.01,2013-05-09 14:55:00,
2013-05-09 08:01:00,52.5,32.9,30.11,ESE,102,4.0,4.0,47,0.00,,,0.00,VWS V14.01,2013-05-09 15:01:00,
2013-05-09 08:06:00,52.7,33.0,30.11,SW,219,3.6,4.0,47,0.00,,,0.00,VWS V14.01,2013-05-09 15:06:00,
2013-05-09 08:11:00,52.9,32.7,30.11,SW,224,4.0,4.9,46,0.00,,,0.00,VWS V14.01,2013-05-09 15:11:00,
2013-05-09 08:16:00,52.9,32.1,30.11,South,188,3.1,5.8,45,0.00,,,0.00,VWS V14.01,2013-05-09 15:16:00,
2013-05-09 08:21:00,53.1,31.7,30.11,SSW,212,4.9,6.3,44,0.00,,,0.00,VWS V14.01,2013-05-09 15:21:00,
2013-05-09 08:26:00,53.2,31.3,30.11,SW,222,4.0,4.0,43,0.00,,,0.00,VWS V14.01,2013-05-09 15:26:00,
2013-05-09 08:31:00,53.2,30.8,30.11,SE,135,4.0,4.0,42,0.00,,,0.00,VWS V14.01,2013-05-09 15:31:00,
2013-05-09 08:36:00,53.2,30.8,30.11,SW,231,3.6,3.6,42,0.00,,,0.00,VWS V14.01,2013-05-09 15:36:00,
2013-05-09 08:41:00,53.4,30.9,30.11,ESE,112,5.4,5.4,42,0.00,,,0.00,VWS V14.01,2013-05-09 15:41:00,
2013-05-09 08:46:00,53.4,30.3,30.11,SW,217,3.1,5.4,41,0.00,,,0.00,VWS V14.01,2013-05-09 15:46:00,
2013-05-09 08:51:00,53.6,29.9,30.11,WSW,245,5.4,5.4,40,0.00,,,0.00,VWS V14.01,2013-05-09 15:51:00,
2013-05-09 08:56:00,53.6,29.9,30.11,SSW,197,3.6,6.3,40,0.00,,,0.00,VWS V14.01,2013-05-09 15:56:00,
2013-05-09 09:01:00,53.6,29.9,30.11,WSW,238,3.6,3.6,40,0.00,,,0.00,VWS V14.01,2013-05-09 16:01:00,
2013-05-09 09:06:00,53.6,29.9,30.11,SSW,212,3.1,3.1,40,0.00,,,0.00,VWS V14.01,2013-05-09 16:06:00,
2013-05-09 09:11:00,53.8,30.0,30.11,SW,220,2.7,2.7,40,0.00,,,0.00,VWS V14.01,2013-05-09 16:11:00,
2013-05-09 09:16:00,54.0,29.6,30.11,South,178,3.6,4.0,39,0.00,,,0.00,VWS V14.01,2013-05-09 16:16:00,
2013-05-09 09:21:00,54.0,29.6,30.11,SSW,208,8.1,8.1,39,0.00,,,0.00,VWS V14.01,2013-05-09 16:21:00,
2013-05-09 09:26:00,54.3,29.3,30.11,SSW,199,2.7,3.1,38,0.00,,,0.00,VWS V14.01,2013-05-09 16:26:00,
2013-05-09 09:31:00,54.5,29.4,30.11,SSE,168,3.6,4.9,38,0.00,,,0.00,VWS V14.01,2013-05-09 16:31:00,
2013-05-09 09:36:00,54.9,29.8,30.11,SW,216,4.0,4.0,38,0.00,,,0.00,VWS V14.01,2013-05-09 16:36:00,
2013-05-09 09:41:00,55.0,29.3,30.11,South,173,5.8,5.8,37,0.00,,,0.00,VWS V14.01,2013-05-09 16:41:00,
2013-05-09 09:46:00,55.2,29.4,30.11,South,169,4.9,4.9,37,0.00,,,0.00,VWS V14.01,2013-05-09 16:46:00,
2013-05-09 09:51:00,55.0,28.6,30.11,WSW,241,3.6,3.6,36,0.00,,,0.00,VWS V14.01,2013-05-09 16:51:00,
2013-05-09 09:56:00,55.2,28.8,30.11,SSW,210,4.0,4.0,36,0.00,,,0.00,VWS V14.01,2013-05-09 16:56:00,
2013-05-09 10:01:00,55.4,28.2,30.11,SW,219,3.1,5.8,35,0.00,,,0.00,VWS V14.01,2013-05-09 17:01:00,
2013-05-09 10:06:00,55.8,28.5,30.11,SW,226,3.1,5.8,35,0.00,,,0.00,VWS V14.01,2013-05-09 17:06:00,
2013-05-09 10:11:00,55.8,28.5,30.11,ESE,114,6.3,6.3,35,0.00,,,0.00,VWS V14.01,2013-05-09 17:11:00,
2013-05-09 10:16:00,55.8,28.5,30.11,SW,216,3.6,5.8,35,0.00,,,0.00,VWS V14.01,2013-05-09 17:16:00,
2013-05-09 10:22:00,56.1,28.9,30.11,SW,234,4.0,5.8,35,0.00,,,0.00,VWS V14.01,2013-05-09 17:22:00,
2013-05-09 10:27:00,56.1,27.4,30.11,SE,126,3.6,8.3,33,0.00,,,0.00,VWS V14.01,2013-05-09 17:27:00,
2013-05-09 10:32:00,56.1,26.7,30.11,South,182,5.4,6.3,32,0.00,,,0.00,VWS V14.01,2013-05-09 17:32:00,
2013-05-09 10:37:00,56.1,27.4,30.11,SSW,211,3.6,4.9,33,0.00,,,0.00,VWS V14.01,2013-05-09 17:37:00,
2013-05-09 10:42:00,56.5,27.0,30.11,SW,232,3.1,6.3,32,0.00,,,0.00,VWS V14.01,2013-05-09 17:42:00,
2013-05-09 10:47:00,56.5,27.0,30.11,SW,228,3.6,5.4,32,0.00,,,0.00,VWS V14.01,2013-05-09 17:47:00,
2013-05-09 10:52:00,56.8,27.3,30.11,SSW,202,3.6,5.8,32,0.00,,,0.00,VWS V14.01,2013-05-09 17:52:00,
2013-05-09 10:57:00,57.2,26.1,30.11,West,260,8.1,8.1,30,0.00,,,0.00,VWS V14.01,2013-05-09 17:57:00,
2013-05-09 11:02:00,57.2,26.1,30.11,South,191,8.7,8.7,30,0.00,,,0.00,VWS V14.01,2013-05-09 18:02:00,
2013-05-09 11:07:00,57.6,25.6,30.11,South,187,5.8,5.8,29,0.00,,,0.00,VWS V14.01,2013-05-09 18:07:00,
2013-05-09 11:12:00,57.6,25.6,30.11,WSW,248,3.6,3.6,29,0.00,,,0.00,VWS V14.01,2013-05-09 18:12:00,
2013-05-09 11:17:00,57.6,25.6,30.11,South,177,5.4,5.8,29,0.00,,,0.00,VWS V14.01,2013-05-09 18:17:00,
2013-05-09 11:22:00,57.4,24.6,30.11,WSW,238,4.0,8.3,28,0.00,,,0.00,VWS V14.01,2013-05-09 18:22:00,
2013-05-09 11:27:00,57.6,25.6,30.11,SW,227,3.6,4.9,29,0.00,,,0.00,VWS V14.01,2013-05-09 18:27:00,
2013-05-09 11:32:00,57.6,24.7,30.11,SW,220,3.6,6.3,28,0.00,,,0.00,VWS V14.01,2013-05-09 18:32:00,
2013-05-09 11:37:00,57.6,25.6,30.11,SSW,202,7.2,8.3,29,0.00,,,0.00,VWS V14.01,2013-05-09 18:37:00,
2013-05-09 11:42:00,57.6,25.6,30.11,SSW,206,6.3,11.0,29,0.00,,,0.00,VWS V14.01,2013-05-09 18:42:00,
2013-05-09 11:47:00,57.4,26.2,30.11,WSW,253,7.6,7.6,30,0.00,,,0.00,VWS V14.01,2013-05-09 18:47:00,
2013-05-09 11:52:00,57.6,26.4,30.11,South,182,7.6,7.6,30,0.00,,,0.00,VWS V14.01,2013-05-09 18:52:00,
2013-05-09 11:57:00,57.9,25.9,30.11,SW,221,3.1,4.9,29,0.00,,,0.00,VWS V14.01,2013-05-09 18:57:00,
2013-05-09 12:02:00,57.9,25.9,30.11,SSW,205,7.6,7.6,29,0.00,,,0.00,VWS V14.01,2013-05-09 19:02:00,
2013-05-09 12:07:00,58.1,25.2,30.11,SSW,210,6.3,6.3,28,0.00,,,0.00,VWS V14.01,2013-05-09 19:07:00,
2013-05-09 12:12:00,57.9,23.3,30.11,SW,221,2.2,11.0,26,0.00,,,0.00,VWS V14.01,2013-05-09 19:12:00,
2013-05-09 12:17:00,58.1,24.3,30.11,SW,217,6.3,7.6,27,0.00,,,0.00,VWS V14.01,2013-05-09 19:17:00,
2013-05-09 12:22:00,58.1,24.3,30.11,WSW,239,6.3,6.3,27,0.00,,,0.00,VWS V14.01,2013-05-09 19:22:00,
2013-05-09 12:27:00,58.5,24.6,30.11,SSW,209,7.2,7.2,27,0.00,,,0.00,VWS V14.01,2013-05-09 19:27:00,
2013-05-09 12:32:00,59.0,24.2,30.11,South,183,8.3,8.3,26,0.00,,,0.00,VWS V14.01,2013-05-09 19:32:00,
2013-05-09 12:37:00,59.2,24.3,30.11,WSW,249,5.8,6.3,26,0.00,,,0.00,VWS V14.01,2013-05-09 19:37:00,
2013-05-09 12:42:00,59.2,23.4,30.11,SSW,197,8.7,8.7,25,0.00,,,0.00,VWS V14.01,2013-05-09 19:42:00,
2013-05-09 12:47:00,59.4,23.6,30.11,ENE,68,4.0,5.8,25,0.00,,,0.00,VWS V14.01,2013-05-09 19:47:00,
2013-05-09 12:52:00,59.9,24.0,30.11,West,277,2.7,5.4,25,0.00,,,0.00,VWS V14.01,2013-05-09 19:52:00,
2013-05-09 12:57:00,60.1,23.2,30.11,SSW,200,5.4,8.1,24,0.00,,,0.00,VWS V14.01,2013-05-09 19:57:00,
2013-05-09 13:02:00,59.9,24.0,30.11,SSW,200,4.0,8.3,25,0.00,,,0.00,VWS V14.01,2013-05-09 20:02:00,
2013-05-09 13:07:00,60.4,24.5,30.11,SSW,212,5.8,5.8,25,0.00,,,0.00,VWS V14.01,2013-05-09 20:07:00,
2013-05-09 13:12:00,60.3,23.4,30.11,SW,234,7.2,7.2,24,0.00,,,0.00,VWS V14.01,2013-05-09 20:12:00,
2013-05-09 13:17:00,60.3,24.3,30.11,SSW,206,4.9,9.6,25,0.00,,,0.00,VWS V14.01,2013-05-09 20:17:00,
2013-05-09 13:22:00,60.4,23.5,30.11,SSW,210,9.6,9.6,24,0.00,,,0.00,VWS V14.01,2013-05-09 20:22:00,
2013-05-09 13:27:00,60.4,24.5,30.11,SSW,197,5.4,5.8,25,0.00,,,0.00,VWS V14.01,2013-05-09 20:27:00,
2013-05-09 13:32:00,60.4,23.5,30.11,West,274,7.6,8.3,24,0.00,,,0.00,VWS V14.01,2013-05-09 20:32:00,
2013-05-09 13:37:00,60.6,24.6,30.11,North,357,5.4,5.8,25,0.00,,,0.00,VWS V14.01,2013-05-09 20:37:00,
2013-05-09 13:43:00,61.0,24.0,30.11,ESE,119,4.0,6.3,24,0.00,,,0.00,VWS V14.01,2013-05-09 20:43:00,
2013-05-09 13:48:00,61.5,24.4,30.11,SW,218,4.0,7.6,24,0.00,,,0.00,VWS V14.01,2013-05-09 20:48:00,
2013-05-09 13:53:00,61.7,21.4,30.11,WSW,243,8.3,8.3,21,0.00,,,0.00,VWS V14.01,2013-05-09 20:53:00,
2013-05-09 13:58:00,61.5,21.2,30.11,South,184,5.4,6.3,21,0.00,,,0.00,VWS V14.01,2013-05-09 20:58:00,
2013-05-09 14:03:00,61.7,21.4,30.11,SSW,201,3.6,6.3,21,0.00,,,0.00,VWS V14.01,2013-05-09 21:03:00,
2013-05-09 14:08:00,61.9,21.5,30.11,SW,233,4.9,5.8,21,0.00,,,0.00,VWS V14.01,2013-05-09 21:08:00,
2013-05-09 14:13:00,62.2,19.5,30.11,SSW,195,6.3,8.3,19,0.00,,,0.00,VWS V14.01,2013-05-09 21:13:00,
2013-05-09 14:18:00,62.2,19.5,30.11,SSW,201,8.1,8.3,19,0.00,,,0.00,VWS V14.01,2013-05-09 21:18:00,
2013-05-09 14:23:00,62.2,19.5,30.11,SSW,197,4.0,5.4,19,0.00,,,0.00,VWS V14.01,2013-05-09 21:23:00,
2013-05-09 14:28:00,62.4,19.6,30.11,WSW,238,4.0,4.0,19,0.00,,,0.00,VWS V14.01,2013-05-09 21:28:00,
2013-05-09 14:33:00,62.8,18.7,30.11,South,187,2.7,5.4,18,0.00,,,0.00,VWS V14.01,2013-05-09 21:33:00,
2013-05-09 14:38:00,63.0,18.8,30.11,SW,229,6.3,6.3,18,0.00,,,0.00,VWS V14.01,2013-05-09 21:38:00,
2013-05-09 14:43:00,63.1,16.2,30.11,SW,234,3.6,8.1,16,0.00,,,0.00,VWS V14.01,2013-05-09 21:43:00,
2013-05-09 14:48:00,63.1,19.0,30.11,SE,142,4.5,5.4,18,0.00,,,0.00,VWS V14.01,2013-05-09 21:48:00,
2013-05-09 14:53:00,63.0,16.1,30.11,SE,125,4.0,5.4,16,0.00,,,0.00,VWS V14.01,2013-05-09 21:53:00,
2013-05-09 14:58:00,63.0,16.1,30.11,North,353,5.8,5.8,16,0.00,,,0.00,VWS V14.01,2013-05-09 21:58:00,
2013-05-09 15:03:00,62.8,15.9,30.11,East,82,4.0,5.4,16,0.00,,,0.00,VWS V14.01,2013-05-09 22:03:00,
2013-05-09 15:08:00,63.1,16.2,30.11,South,182,5.8,5.8,16,0.00,,,0.00,VWS V14.01,2013-05-09 22:08:00,
2013-05-09 15:13:00,63.1,16.2,30.11,SSW,201,3.1,5.8,16,0.00,,,0.00,VWS V14.01,2013-05-09 22:13:00,
2013-05-09 15:18:00,63.1,16.2,30.11,SSW,205,5.8,5.8,16,0.00,,,0.00,VWS V14.01,2013-05-09 22:18:00,
2013-05-09 15:23:00,63.0,16.1,30.11,South,171,7.6,8.3,16,0.00,,,0.00,VWS V14.01,2013-05-09 22:23:00,
2013-05-09 15:28:00,63.1,16.2,30.11,SSW,201,4.0,7.6,16,0.00,,,0.00,VWS V14.01,2013-05-09 22:28:00,
2013-05-09 15:33:00,62.8,15.9,30.11,West,261,3.6,8.1,16,0.00,,,0.00,VWS V14.01,2013-05-09 22:33:00,
2013-05-09 15:38:00,63.0,16.1,30.11,SSW,196,3.6,8.3,16,0.00,,,0.00,VWS V14.01,2013-05-09 22:38:00,
2013-05-09 15:43:00,63.0,16.1,30.11,South,190,7.6,8.3,16,0.00,,,0.00,VWS V14.01,2013-05-09 22:43:00,
2013-05-09 15:48:00,62.8,15.9,30.11,West,275,5.4,7.6,16,0.00,,,0.00,VWS V14.01,2013-05-09 22:48:00,
2013-05-09 15:53:00,63.0,16.1,30.11,SW,235,8.1,8.1,16,0.00,,,0.00,VWS V14.01,2013-05-09 22:53:00,
2013-05-09 15:58:00,63.3,16.4,30.11,WSW,242,3.6,4.9,16,0.00,,,0.00,VWS V14.01,2013-05-09 22:58:00,
2013-05-09 16:03:00,63.3,16.4,30.11,SW,225,5.4,5.4,16,0.00,,,0.00,VWS V14.01,2013-05-09 23:03:00,
2013-05-09 16:08:00,63.1,16.2,30.11,SW,236,3.1,5.8,16,0.00,,,0.00,VWS V14.01,2013-05-09 23:08:00,
2013-05-09 16:13:00,63.0,16.1,30.11,SW,220,5.8,11.0,16,0.00,,,0.00,VWS V14.01,2013-05-09 23:13:00,
2013-05-09 16:18:00,62.6,15.8,30.11,SSW,201,7.6,8.1,16,0.00,,,0.00,VWS V14.01,2013-05-09 23:18:00,
2013-05-09 16:23:00,62.4,19.6,30.11,SE,125,4.9,7.6,19,0.00,,,0.00,VWS V14.01,2013-05-09 23:23:00,
2013-05-09 16:28:00,62.6,15.8,30.11,SW,235,2.7,7.6,16,0.00,,,0.00,VWS V14.01,2013-05-09 23:28:00,
2013-05-09 16:34:00,62.4,15.7,30.11,WSW,250,4.9,5.4,16,0.00,,,0.00,VWS V14.01,2013-05-09 23:34:00,
2013-05-09 16:39:00,62.2,19.5,30.11,SSW,196,4.9,5.4,19,0.00,,,0.00,VWS V14.01,2013-05-09 23:39:00,
2013-05-09 16:44:00,62.2,19.5,30.11,South,178,3.1,6.7,19,0.00,,,0.00,VWS V14.01,2013-05-09 23:44:00,
2013-05-09 16:49:00,62.2,19.5,30.11,SW,214,5.8,5.8,19,0.00,,,0.00,VWS V14.01,2013-05-09 23:49:00,
2013-05-09 16:54:00,62.6,18.5,30.11,SW,221,4.0,4.0,18,0.00,,,0.00,VWS V14.01,2013-05-09 23:54:00,
2013-05-09 16:59:00,62.8,15.9,30.11,SW,222,5.8,5.8,16,0.00,,,0.00,VWS V14.01,2013-05-09 23:59:00,
2013-05-09 17:04:00,62.6,15.8,30.11,South,190,5.4,5.4,16,0.00,,,0.00,VWS V14.01,2013-05-10 00:04:00,
2013-05-09 17:09:00,62.1,15.4,30.11,South,184,4.0,4.0,16,0.00,,,0.00,VWS V14.01,2013-05-10 00:09:00,
2013-05-09 17:14:00,61.9,19.2,30.11,South,176,5.4,5.8,19,0.00,,,0.00,VWS V14.01,2013-05-10 00:14:00,
2013-05-09 17:19:00,62.1,19.3,30.11,SE,145,5.8,6.3,19,0.00,,,0.00,VWS V14.01,2013-05-10 00:19:00,
2013-05-09 17:24:00,61.9,19.2,30.11,SSW,213,5.4,5.4,19,0.00,,,0.00,VWS V14.01,2013-05-10 00:24:00,
2013-05-09 17:29:00,61.7,19.0,30.11,SW,226,3.6,3.6,19,0.00,,,0.00,VWS V14.01,2013-05-10 00:29:00,
2013-05-09 17:34:00,61.5,21.2,30.11,SE,129,5.4,5.4,21,0.00,,,0.00,VWS V14.01,2013-05-10 00:34:00,
2013-05-09 17:39:00,61.3,21.1,30.11,SSW,213,3.1,3.6,21,0.00,,,0.00,VWS V14.01,2013-05-10 00:39:00,
2013-05-09 17:44:00,61.5,18.9,30.11,SSE,164,3.6,4.0,19,0.00,,,0.00,VWS V14.01,2013-05-10 00:44:00,
2013-05-09 17:49:00,61.2,18.6,30.11,SSE,155,4.9,6.3,19,0.00,,,0.00,VWS V14.01,2013-05-10 00:49:00,
2013-05-09 17:54:00,61.0,18.5,30.11,WSW,241,5.8,6.3,19,0.00,,,0.00,VWS V14.01,2013-05-10 00:54:00,
2013-05-09 17:59:00,60.8,18.3,30.11,South,187,5.4,5.4,19,0.00,,,0.00,VWS V14.01,2013-05-10 00:59:00,
2013-05-09 18:04:00,60.4,23.5,30.11,East,92,4.0,8.1,24,0.00,,,0.00,VWS V14.01,2013-05-10 01:04:00,
2013-05-09 18:09:00,59.9,23.0,30.11,WSW,246,5.4,6.3,24,0.00,,,0.00,VWS V14.01,2013-05-10 01:09:00,
2013-05-09 18:14:00,59.5,23.7,30.11,SW,234,3.1,5.4,25,0.00,,,0.00,VWS V14.01,2013-05-10 01:14:00,
2013-05-09 18:19:00,59.4,23.6,30.11,SSW,211,5.4,5.4,25,0.00,,,0.00,VWS V14.01,2013-05-10 01:19:00,
2013-05-09 18:24:00,59.4,23.6,30.11,SSW,212,6.3,8.7,25,0.00,,,0.00,VWS V14.01,2013-05-10 01:24:00,
2013-05-09 18:29:00,59.2,23.4,30.11,SSW,194,3.1,8.3,25,0.00,,,0.00,VWS V14.01,2013-05-10 01:29:00,
2013-05-09 18:34:00,58.5,23.7,30.11,SE,140,4.0,5.4,26,0.00,,,0.00,VWS V14.01,2013-05-10 01:34:00,
2013-05-09 18:39:00,58.1,23.4,30.11,SW,236,4.0,6.3,26,0.00,,,0.00,VWS V14.01,2013-05-10 01:39:00,
2013-05-09 18:44:00,57.9,25.0,30.11,SSW,192,5.4,6.3,28,0.00,,,0.00,VWS V14.01,2013-05-10 01:44:00,
2013-05-09 18:49:00,57.6,25.6,30.11,SSE,167,5.4,6.3,29,0.00,,,0.00,VWS V14.01,2013-05-10 01:49:00,
2013-05-09 18:55:00,57.0,25.1,30.11,SSE,154,3.1,6.3,29,0.00,,,0.00,VWS V14.01,2013-05-10 01:55:00,
2013-05-09 19:00:00,56.7,27.2,30.11,SSW,205,6.7,6.7,32,0.00,,,0.00,VWS V14.01,2013-05-10 02:00:00,
2013-05-09 19:05:00,56.5,28.5,30.11,SSE,155,4.9,6.3,34,0.00,,,0.00,VWS V14.01,2013-05-10 02:05:00,
2013-05-09 19:10:00,56.3,28.3,30.11,SW,224,4.9,7.2,34,0.00,,,0.00,VWS V14.01,2013-05-10 02:10:00,
2013-05-09 19:15:00,55.9,28.7,30.11,SSW,211,3.6,5.8,35,0.00,,,0.00,VWS V14.01,2013-05-10 02:15:00,
2013-05-09 19:20:00,55.8,28.5,30.11,SSW,211,2.7,8.1,35,0.00,,,0.00,VWS V14.01,2013-05-10 02:20:00,
2013-05-09 19:25:00,55.4,28.2,30.11,East,90,5.8,8.7,35,0.00,,,0.00,VWS V14.01,2013-05-10 02:25:00,
2013-05-09 19:30:00,55.0,28.6,30.11,WSW,240,8.7,8.7,36,0.00,,,0.00,VWS V14.01,2013-05-10 02:30:00,
2013-05-09 19:35:00,54.9,29.1,30.11,SSE,161,4.9,5.8,37,0.00,,,0.00,VWS V14.01,2013-05-10 02:35:00,
2013-05-09 19:40:00,54.5,28.8,30.11,South,189,8.3,8.3,37,0.00,,,0.00,VWS V14.01,2013-05-10 02:40:00,
2013-05-09 19:45:00,54.3,29.3,30.11,ESE,115,5.8,5.8,38,0.00,,,0.00,VWS V14.01,2013-05-10 02:45:00,
2013-05-09 19:50:00,54.0,29.6,30.11,SSW,207,6.3,8.1,39,0.00,,,0.00,VWS V14.01,2013-05-10 02:50:00,
2013-05-09 19:55:00,53.6,29.3,30.11,ESE,109,3.1,5.8,39,0.00,,,0.00,VWS V14.01,2013-05-10 02:55:00,
2013-05-09 20:00:00,53.4,30.3,30.11,ESE,120,5.8,5.8,41,0.00,,,0.00,VWS V14.01,2013-05-10 03:00:00,
2013-05-09 20:05:00,53.2,30.8,30.11,SSE,163,4.0,4.9,42,0.00,,,0.00,VWS V14.01,2013-05-10 03:05:00,
2013-05-09 20:10:00,53.1,31.2,30.11,SSE,156,3.6,3.6,43,0.00,,,0.00,VWS V14.01,2013-05-10 03:10:00,
2013-05-09 20:15:00,52.9,31.6,30.11,SSE,162,3.6,5.8,44,0.00,,,0.00,VWS V14.01,2013-05-10 03:15:00,
2013-05-09 20:20:00,52.9,32.1,30.11,SE,133,5.4,5.4,45,0.00,,,0.00,VWS V14.01,2013-05-10 03:20:00,
2013-05-09 20:25:00,52.7,32.5,30.11,South,181,3.1,5.8,46,0.00,,,0.00,VWS V14.01,2013-05-10 03:25:00,
2013-05-09 20:30:00,52.7,32.5,30.11,East,84,3.6,4.9,46,0.00,,,0.00,VWS V14.01,2013-05-10 03:30:00,
2013-05-09 20:35:00,52.5,32.3,30.11,South,173,4.9,4.9,46,0.00,,,0.00,VWS V14.01,2013-05-10 03:35:00,
2013-05-09 20:40:00,52.5,32.9,30.11,SW,234,3.6,5.8,47,0.00,,,0.00,VWS V14.01,2013-05-10 03:40:00,
2013-05-09 20:45:00,52.5,32.9,30.11,ESE,119,5.4,5.8,47,0.00,,,0.00,VWS V14.01,2013-05-10 03:45:00,
2013-05-09 20:50:00,52.7,33.6,30.11,SSE,168,3.1,4.0,48,0.00,,,0.00,VWS V14.01,2013-05-10 03:50:00,
2013-05-09 20:55:00,52.7,33.6,30.11,South,173,3.1,3.6,48,0.00,,,0.00,VWS V14.01,2013-05-10 03:55:00,
2013-05-09 21:00:00,52.9,33.7,30.11,SE,125,3.6,5.4,48,0.00,,,0.00,VWS V14.01,2013-05-10 04:00:00,
2013-05-09 21:01:00,52.9,33.7,30.11,South,172,5.8,5.8,48,0.00,,,0.00,VWS V14.01,2013-05-10 04:01:00,
2013-05-09 21:06:00,52.9,34.3,30.11,ESE,114,3.1,5.8,49,0.00,,,0.00,VWS V14.01,2013-05-10 04:06:00,
2013-05-09 21:11:00,52.9,34.3,30.11,NW,304,6.3,8.7,49,0.00,,,0.00,VWS V14.01,2013-05-10 04:11:00,
2013-05-09 21:16:00,52.9,34.3,30.11,South,170,5.4,5.8,49,0.00,,,0.00,VWS V14.01,2013-05-10 04:16:00,
2013-05-09 21:21:00,52.7,34.1,30.11,SE,134,4.0,5.8,49,0.00,,,0.00,VWS V14.01,2013-05-10 04:21:00,
2013-05-09 21:26:00,52.7,34.1,30.11,South,177,4.0,4.9,49,0.00,,,0.00,VWS V14.01,2013-05-10 04:26:00,
2013-05-09 21:31:00,52.9,34.3,30.11,SW,234,3.1,4.0,49,0.00,,,0.00,VWS V14.01,2013-05-10 04:31:00,
2013-05-09 21:36:00,52.7,34.1,30.11,South,188,2.7,4.0,49,0.00,,,0.00,VWS V14.01,2013-05-10 04:36:00,
2013-05-09 21:41:00,52.7,33.6,30.11,SSW,201,3.1,4.9,48,0.00,,,0.00,VWS V14.01,2013-05-10 04:41:00,
2013-05-09 21:46:00,52.5,33.4,30.11,South,175,3.1,4.0,48,0.00,,,0.00,VWS V14.01,2013-05-10 04:46:00,
2013-05-09 21:51:00,52.3,33.2,30.11,South,169,5.4,5.4,48,0.00,,,0.00,VWS V14.01,2013-05-10 04:51:00,
2013-05-09 21:56:00,52.2,33.1,30.11,SSW,212,2.7,4.9,48,0.00,,,0.00,VWS V14.01,2013-05-10 04:56:00,
2013-05-09 22:01:00,52.0,33.4,30.11,WSW,240,4.9,5.8,49,0.00,,,0.00,VWS V14.01,2013-05-10 05:01:00,
2013-05-09 22:06:00,52.0,33.4,30.11,WSW,244,4.0,5.8,49,0.00,,,0.00,VWS V14.01,2013-05-10 05:06:00,
2013-05-09 22:12:00,52.0,33.4,30.11,SW,229,4.0,4.0,49,0.00,,,0.00,VWS V14.01,2013-05-10 05:12:00,
2013-05-09 22:16:00,51.8,33.8,30.11,ESE,112,7.6,7.6,50,0.00,,,0.00,VWS V14.01,2013-05-10 05:16:00,
2013-05-09 22:22:00,51.8,33.8,30.11,SSW,195,5.4,5.4,50,0.00,,,0.00,VWS V14.01,2013-05-10 05:22:00,
2013-05-09 22:27:00,51.6,33.6,30.11,SSE,153,3.6,6.3,50,0.00,,,0.00,VWS V14.01,2013-05-10 05:27:00,
2013-05-09 22:32:00,51.6,34.1,30.11,East,87,5.4,5.4,51,0.00,,,0.00,VWS V14.01,2013-05-10 05:32:00,
2013-05-09 22:37:00,51.4,33.9,30.11,South,190,6.3,6.3,51,0.00,,,0.00,VWS V14.01,2013-05-10 05:37:00,
2013-05-09 22:42:00,51.4,33.9,30.11,SSW,209,4.0,6.3,51,0.00,,,0.00,VWS V14.01,2013-05-10 05:42:00,
2013-05-09 22:47:00,51.3,34.2,30.11,South,183,3.1,3.6,52,0.00,,,0.00,VWS V14.01,2013-05-10 05:47:00,
2013-05-09 22:52:00,51.3,34.2,30.11,WSW,240,3.1,5.8,52,0.00,,,0.00,VWS V14.01,2013-05-10 05:52:00,
2013-05-09 22:57:00,51.3,34.7,30.11,SSE,163,3.1,6.3,53,0.00,,,0.00,VWS V14.01,2013-05-10 05:57:00,
2013-05-09 23:02:00,51.1,34.6,30.11,East,94,3.1,8.1,53,0.00,,,0.00,VWS V14.01,2013-05-10 06:02:00,
2013-05-09 23:07:00,51.1,34.6,30.11,SW,214,5.4,8.3,53,0.00,,,0.00,VWS V14.01,2013-05-10 06:07:00,
2013-05-09 23:12:00,51.1,34.6,30.11,North,0,5.4,5.4,53,0.00,,,0.00,VWS V14.01,2013-05-10 06:12:00,
2013-05-09 23:17:00,51.3,35.2,30.11,SSE,156,5.4,5.4,54,0.00,,,0.00,VWS V14.01,2013-05-10 06:17:00,
2013-05-09 23:22:00,51.3,35.2,30.11,SSE,153,4.9,5.4,54,0.00,,,0.00,VWS V14.01,2013-05-10 06:22:00,
2013-05-09 23:27:00,51.3,35.7,30.11,SE,144,4.9,8.3,55,0.00,,,0.00,VWS V14.01,2013-05-10 06:27:00,
2013-05-09 23:32:00,51.3,35.7,30.11,SSW,204,4.0,7.2,55,0.00,,,0.00,VWS V14.01,2013-05-10 06:32:00,
2013-05-09 23:37:00,51.1,35.5,30.11,SSE,147,4.0,4.0,55,0.00,,,0.00,VWS V14.01,2013-05-10 06:37:00,
2013-05-09 23:42:00,51.1,35.5,30.11,ESE,109,5.8,5.8,55,0.00,,,0.00,VWS V14.01,2013-05-10 06:42:00,
2013-05-09 23:47:00,51.1,36.0,30.11,South,174,5.4,5.4,56,0.00,,,0.00,VWS V14.01,2013-05-10 06:47:00,
2013-05-09 23:52:00,51.1,36.0,30.11,West,277,4.9,5.4,56,0.00,,,0.00,VWS V14.01,2013-05-10 06:52:00,
2013-05-09 23:57:00,51.1,36.0,30.11,WSW,250,6.3,6.3,56,0.00,,,0.00,VWS V14.01,2013-05-10 06:57:00,